Torna al catalogo

BD-21

AttivoNavigazioneMEO
NORAD 41315·PAYLOAD·🇨🇳 China

Lanciato Feb 1, 2016 da Xichang Satellite Launch Center

Loading…

Prossimi Passaggi (prossime 24 ore)

TLE

AggiornatoSource: Space-Track

Epoca: Sep 12, 2026, 00:27 UTC

1 41315U 16006A   26255.01900817 -.00000038  00000-0  00000-0 0  9995
2 41315  56.7856  60.7838 0002296 298.9998  60.9964  1.86230776 72214

Traccia BD-21 in tempo reale con AllMySat

Download on the App Store